,

(GMT )
Bow Valley

Weather History for CWXA - October, 2013

Change the Weather History Date:

Tuesday, October 1, 2013

  Actual Average Record
Temperature  
Mean Temperature 43 °F -  
Max Temperature 48 °F - - ()
Min Temperature 38 °F - - ()
Degree Days  
Heating Degree Days 22    
Moisture  
Dew Point 21 °F    
Average Humidity 41    
Maximum Humidity 55    
Minimum Humidity 20    
Precipitation  
Precipitation 0.00 in - - ()
Sea Level Pressure  
Sea Level Pressure 29.75 in    
Wind  
Wind Speed 7 mph ()    
Max Wind Speed 12 mph    
Max Gust Speed 23 mph    
T = Trace of Precipitation, MM = Missing Value Source: Averaged Metar Reports

Daily Weather History Graph

Daily Weather History Graph

Search for Another Location

Airport or City:

Trip Planner

Search our weather history database for the weather conditions in past years. The results will help you decide how hot, cold, wet, or windy it might be!

Date:

Astronomy

Oct. 01, 2013 Rise Set
Actual Time 7:41 AM MDT 7:17 PM MDT
Civil Twilight 7:08 AM MDT 7:50 PM MDT
Nautical Twilight 6:29 AM MDT 8:28 PM MDT
Astronomical Twilight 5:50 AM MDT 9:07 PM MDT
Moon 4:01 AM MDT (10/1) 5:38 PM MDT (10/1)
Length of Visible Light 12h 41m
Length of Day
11h 35m
Waning Crescent, 11% of the Moon is Illuminated
Oct 1
Waning Crescent
Oct 4
New
Oct 11
First Quarter
Oct 18
Full
Oct 26
Last Quarter

Hourly Weather History & Observations

Time (MDT) Temp. Windchill Dew Point Humidity Pressure Visibility Wind Dir Wind Speed Gust Speed Precip Events Conditions
12:00 AM 43.3 °F 38.1 °F 21.9 °F 43% 29.61 in - WSW 9.2 mph - N/A   Unknown
1:00 AM 43.0 °F 38.8 °F 21.4 °F 42% 29.62 in - WSW 6.9 mph - N/A   Unknown
2:00 AM 42.8 °F 38.6 °F 22.6 °F 45% 29.64 in - WSW 6.9 mph - N/A   Unknown
3:00 AM 41.9 °F 38.2 °F 23.7 °F 49% 29.65 in - WSW 5.8 mph - N/A   Unknown
4:00 AM 40.6 °F 36.0 °F 25.5 °F 55% 29.66 in - WSW 6.9 mph - N/A   Unknown
5:00 AM 40.8 °F 36.9 °F 25.2 °F 54% 29.67 in - WSW 5.8 mph - N/A   Unknown
6:00 AM 41 °F - 23 °F 36% 29.68 in - WSW 6.9 mph - -  
6:00 AM 41.4 °F 36.8 °F 23.2 °F 48% 29.68 in - WSW 6.9 mph - N/A   Unknown
7:00 AM 40.3 °F 37.1 °F 22.5 °F 49% 29.70 in - WSW 4.6 mph - N/A   Unknown
8:00 AM 40.6 °F 37.5 °F 21.7 °F 47% 29.72 in - WSW 4.6 mph - N/A   Unknown
9:00 AM 41.7 °F 38.0 °F 22.3 °F 46% 29.73 in - WSW 5.8 mph - N/A   Unknown
10:00 AM 43.2 °F 37.4 °F 20.3 °F 40% 29.73 in - WSW 10.4 mph 19.6 mph N/A   Unknown
11:00 AM 43.5 °F 38.9 °F 19.8 °F 39% 29.75 in - West 8.1 mph - N/A   Unknown
12:00 PM 44 °F - 19 °F 24% 29.76 in - WSW 8.1 mph - -  
12:00 PM 44.2 °F 39.7 °F 19.2 °F 37% 29.76 in - WSW 8.1 mph - N/A   Unknown
3:00 PM 45.7 °F 40.2 °F 20.8 °F 37% 29.81 in - WSW 11.5 mph 23.0 mph N/A   Unknown
4:00 PM 48.7 °F - 19.0 °F 31% 29.80 in - WSW 10.4 mph 20.7 mph N/A   Unknown
5:00 PM 46.9 °F - 17.1 °F 30% 29.81 in - WSW 11.5 mph 21.9 mph N/A   Unknown
6:00 PM 45 °F - 17 °F 20% 29.83 in - WSW 10.4 mph - -  
6:00 PM 45.1 °F 39.9 °F 17.1 °F 33% 29.83 in - WSW 10.4 mph 20.7 mph N/A   Unknown
7:00 PM 42.4 °F 37.0 °F 16.3 °F 35% 29.85 in - WSW 9.2 mph 19.6 mph N/A   Unknown
8:00 PM 40.5 °F 36.5 °F 18.1 °F 41% 29.87 in - WSW 5.8 mph - N/A   Unknown
9:00 PM 39.4 °F 35.2 °F 18.9 °F 44% 29.89 in - WSW 5.8 mph - N/A   Unknown
10:00 PM 39.6 °F 35.4 °F 19.0 °F 44% 29.90 in - WSW 5.8 mph - N/A   Unknown
11:00 PM 39.4 °F 33.8 °F 19.8 °F 45% 29.91 in - West 8.1 mph 18.4 mph N/A   Unknown